Weather History for Rome Ciampino, Italy

Change the Weather History Date:

Thursday, January 9, 2014

  Actual Average Record
Temperature  
Mean Temperature 44 °F -  
Max Temperature 52 °F 54 °F 62 °F (2011)
Min Temperature 37 °F 37 °F 30 °F (2002)
Degree Days  
Heating Degree Days 20    
Moisture  
Dew Point 43 °F    
Average Humidity 93    
Maximum Humidity 100    
Minimum Humidity 80    
Precipitation  
Precipitation 0.00 in 0.13 in - ()
Sea Level Pressure  
Sea Level Pressure 30.24 in    
Wind  
Wind Speed 1 mph ()    
Max Wind Speed 2 mph    
Max Gust Speed -    
Visibility 4.4 miles    
Events Fog    
Averages and records for this station are not official NWS values.
T = Trace of Precipitation, MM = Missing Value Source: Averaged Metar Reports

Daily Weather History Graph

Daily Weather History Graph

Search for Another Location

Airport:

Trip Planner

Search our weather history database for the weather conditions in past years. The results will help you decide how hot, cold, wet, or windy it might be!

Date:

Astronomy

Jan. 09, 2014 Rise Set
Actual Time 7:36 AM CET 4:57 PM CET
Civil Twilight 7:05 AM CET 5:28 PM CET
Nautical Twilight 6:30 AM CET 6:02 PM CET
Astronomical Twilight 5:57 AM CET 6:36 PM CET
Moon 12:16 PM CET (1/9) 1:24 AM CET (1/9)
Length of Visible Light 10h 22m
Length of Day
9h 20m
Waxing Gibbous, 63% of the Moon is Illuminated
Jan 9
Waxing Gibbous
Jan 16
Full
Jan 24
Last Quarter
Jan 30
New
Feb 6
First Quarter

Hourly Weather History & Observations

Time (CET) Temp. Dew Point Humidity Pressure Visibility Wind Dir Wind Speed Gust Speed Precip Events Conditions
12:15 AM 42.8 °F 42.8 °F 100% 30.30 in 4.3 mi NE 2.3 mph - N/A   Unknown
12:45 AM 42.8 °F 41.0 °F 93% 30.30 in 4.3 mi NE 2.3 mph - N/A   Unknown
1:00 AM 43 °F 41 °F 92% 30.32 in 4 mi NE 2.3 mph - -   Mist
1:15 AM 42.8 °F 41.0 °F 93% 30.30 in 2.5 mi NE 1.2 mph - N/A   Partly Cloudy
1:45 AM 42.8 °F 41.0 °F 93% 30.30 in 2.5 mi Calm Calm - N/A   Partly Cloudy
2:15 AM 41.0 °F 41.0 °F 100% 30.27 in 2.5 mi Calm Calm - N/A   Partly Cloudy
2:45 AM 41.0 °F 41.0 °F 100% 30.27 in 2.5 mi Calm Calm - N/A   Partly Cloudy
3:15 AM 39.2 °F 39.2 °F 100% 30.27 in 1.6 mi Calm Calm - N/A Fog Patches of Fog
3:45 AM 39.2 °F 39.2 °F 100% 30.27 in 1.9 mi Calm Calm - N/A   Partly Cloudy
4:00 AM 40 °F 40 °F 98% 30.31 in 2 mi Calm Calm - -   Mist
4:15 AM 39.2 °F 39.2 °F 100% 30.27 in 1.9 mi Calm Calm - N/A   Partly Cloudy
4:45 AM 39.2 °F 39.2 °F 100% 30.27 in 2.5 mi NNE 2.3 mph - N/A   Partly Cloudy
5:15 AM 39.2 °F 39.2 °F 100% 30.27 in 2.5 mi NNE 2.3 mph - N/A   Partly Cloudy
5:45 AM 39.2 °F 39.2 °F 100% 30.24 in 2.5 mi NE 2.3 mph - N/A   Partly Cloudy
6:15 AM 39.2 °F 37.4 °F 93% 30.24 in 3.7 mi NE 1.2 mph - N/A   Partly Cloudy
6:45 AM 39.2 °F 37.4 °F 93% 30.24 in 5.0 mi Calm Calm - N/A   Partly Cloudy
7:00 AM 39 °F 38 °F 94% 30.28 in 5 mi Calm Calm - -   Mist
7:15 AM 39.2 °F 37.4 °F 93% 30.24 in - Calm Calm - N/A   Clear
7:45 AM 37.4 °F 37.4 °F 100% 30.24 in 5.0 mi NNE 1.2 mph - N/A   Unknown
8:15 AM 37.4 °F 37.4 °F 100% 30.24 in 5.0 mi NE 1.2 mph - N/A   Unknown
8:45 AM 37.4 °F 37.4 °F 100% 30.24 in 5.0 mi NE 1.2 mph - N/A   Unknown
9:15 AM 39.2 °F 37.4 °F 93% 30.27 in 5.0 mi NE 1.2 mph - N/A   Unknown
9:45 AM 39.2 °F 37.4 °F 93% 30.27 in 5.0 mi NE 1.2 mph - N/A   Unknown
10:00 AM 39 °F 38 °F 94% 30.29 in 5 mi NE 1.2 mph - -   Mist
10:15 AM 41.0 °F 39.2 °F 93% 30.27 in 5.0 mi Calm Calm - N/A   Unknown
10:45 AM 41.0 °F 41.0 °F 100% 30.27 in 5.0 mi NNW 1.2 mph - N/A   Unknown
11:15 AM 44.6 °F 44.6 °F 100% 30.27 in 5.0 mi NNE 1.2 mph - N/A   Partly Cloudy
11:45 AM 46.4 °F 44.6 °F 93% 30.27 in 5.0 mi Calm Calm - N/A   Partly Cloudy
12:15 PM 46.4 °F 44.6 °F 93% 30.24 in 5.0 mi NNE 1.2 mph - N/A   Partly Cloudy
12:45 PM 48.2 °F 46.4 °F 93% 30.24 in 5.0 mi NE 2.3 mph - N/A   Scattered Clouds
1:00 PM 47 °F 46 °F 92% 30.27 in 5 mi NE 2.3 mph - -   Mist
1:15 PM 48.2 °F 44.6 °F 87% 30.24 in 5.0 mi NE 1.2 mph - N/A   Scattered Clouds
1:45 PM 50.0 °F 46.4 °F 87% 30.21 in 5.0 mi NNE 2.3 mph - N/A   Scattered Clouds
2:15 PM 51.8 °F 48.2 °F 88% 30.21 in 5.0 mi Calm Calm - N/A   Scattered Clouds
2:45 PM 51.8 °F 48.2 °F 88% 30.21 in 5.0 mi Calm Calm - N/A   Scattered Clouds
3:15 PM 53.6 °F 48.2 °F 82% 30.18 in 5.6 mi Calm Calm - N/A   Scattered Clouds
3:45 PM 51.8 °F 48.2 °F 88% 30.21 in 5.6 mi Calm Calm - N/A   Scattered Clouds
4:00 PM 53 °F 49 °F 80% 30.22 in 6 mi Calm Calm - -   Mist
4:15 PM 51.8 °F 48.2 °F 88% 30.21 in 5.6 mi Calm Calm - N/A   Scattered Clouds
4:45 PM 51.8 °F 48.2 °F 88% 30.21 in 5.0 mi Calm Calm - N/A   Scattered Clouds
5:15 PM 51.8 °F 48.2 °F 88% 30.21 in 5.0 mi Calm Calm - N/A   Scattered Clouds
5:45 PM 50.0 °F 46.4 °F 87% 30.21 in 5.0 mi Calm Calm - N/A   Scattered Clouds
6:15 PM 50.0 °F 46.4 °F 87% 30.18 in 5.0 mi Calm Calm - N/A   Scattered Clouds
6:45 PM 50.0 °F 48.2 °F 94% 30.21 in 5.0 mi Calm Calm - N/A   Scattered Clouds
7:00 PM 51 °F 48 °F 86% 30.22 in 5 mi Calm Calm - -   Mist
7:15 PM 50.0 °F 48.2 °F 94% 30.21 in 5.0 mi Calm Calm - N/A   Scattered Clouds
7:45 PM 50.0 °F 48.2 °F 94% 30.21 in 5.0 mi Calm Calm - N/A   Scattered Clouds
8:15 PM 50.0 °F 48.2 °F 94% 30.21 in 5.0 mi Calm Calm - N/A   Scattered Clouds
8:45 PM 50.0 °F 48.2 °F 94% 30.21 in 5.0 mi Calm Calm - N/A   Scattered Clouds
9:45 PM 50.0 °F 48.2 °F 94% 30.21 in 5.0 mi Calm Calm - N/A   Scattered Clouds
10:15 PM 50.0 °F 46.4 °F 87% 30.21 in 5.0 mi Calm Calm - N/A   Scattered Clouds
10:45 PM 48.2 °F 46.4 °F 93% 30.21 in 5.0 mi NNE 1.2 mph - N/A   Scattered Clouds
11:15 PM 50.0 °F 48.2 °F 94% 30.18 in 5.0 mi ENE 2.3 mph - N/A   Scattered Clouds